Regional Weather Roundup
Issued by NWS

Home | Current Version | Previous Version | Text Only | Print | Product List | Glossary On
Versions: 1 2 3 4 5 6 7 8 9 10 11 12 13 14 15 16 17 18 19 20 21 22 23 24 25 26 27 28 29 30 31 32 33 34 35 36 37 38 39 40 41 42 43 44 45 46 47 48 49 50
000
ASUS43 KDTX 291010
RWRMI
MICHIGAN HOURLY REGIONAL WEATHER ROUNDUP
NATIONAL WEATHER SERVICE DETROIT/PONTIAC MI
600 AM EDT FRI APR 29 2016

NOTE: "FAIR" INDICATES FEW OR NO CLOUDS BELOW 12,000 FEET WITH NO
SIGNIFICANT WEATHER AND/OR OBSTRUCTION TO VISIBILITY.

MIZ047>049-052>055-059>063-066>070-074>076-081>083-291100-
SOUTHEAST LOWER MICHIGAN

CITY           SKY/WX    TMP DP  RH WIND       PRES   REMARKS
ADRIAN         CLOUDY    46  34  62 CALM      30.01F
ALMA           CLOUDY    38  32  79 N5        30.05F WCI  35
ANN ARBOR      CLOUDY    45  30  55 NE5       30.00F
BAD AXE        CLOUDY    41  34  77 E3        30.05F
CARO           CLOUDY    41  35  78 CALM      30.03S
DETROIT CITY   CLOUDY    43  30  60 E3        30.03S
DETROIT        CLOUDY    45  28  51 NE6       30.02F
FLINT          CLOUDY    45  33  63 NE3       30.04S
GROSSE ILE     CLOUDY    43  36  75 NE6       30.00F
HILLSDALE      CLOUDY    44  34  67 CALM      30.00S
HOWELL         CLOUDY    43  32  65 CALM      30.02R

CITY           SKY/WX    TMP DP  RH WIND       PRES   REMARKS
JACKSON        CLOUDY    43  33  68 NE5       30.01S
LAMBERTVILLE   CLOUDY    46  34  62 NE5       30.00F
LANSING        CLOUDY    40  36  86 NE6       30.03S
LAPEER         LGT RAIN  41  34  75 CALM      30.02F
MASON          LGT RAIN  41  34  75 CALM      30.03R
MONROE         CLOUDY    45  32  61 NE6       30.00F
PONTIAC        CLOUDY    44  29  55 E3        30.01S
PORT HOPE        N/A     42  35  76 E8        30.05S
PORT HURON     CLOUDY    41  37  87 CALM      30.02F
TRI CITIES     CLOUDY    41  33  73 N8        30.05S
MIDLAND        CLOUDY    40  31  71 CALM      30.05S
TROY           CLOUDY    45  29  54 NE6       30.04S
SAGINAW HB     CLOUDY    41  34  75 CALM      30.04S
$$
MIZ043>046-050>051-056>058-064>065-071>073-077>080-291100-
SOUTHWEST LOWER MICHIGAN

CITY           SKY/WX    TMP DP  RH WIND       PRES   REMARKS
BATTLE CREEK   CLOUDY    43  36  76 E6        30.02R
BENTON HARBOR  LGT RAIN  46  40  79 E5        30.01S
BIG RAPIDS     LGT RAIN  38  31  74 CALM      30.04R
COLDWATER      CLOUDY    45  38  76 E3        30.01R
FREMONT        CLOUDY    39  33  80 NE6       30.05R WCI  35
HOLLAND        CLOUDY    43  36  76 E6        30.04R
GRAND RAPIDS   CLOUDY    42  35  76 E5        30.03S
IONIA          CLOUDY    39  34  81 NE7       30.02F WCI  34
KALAMAZOO      CLOUDY    45  36  70 CALM      30.02R
LUDINGTON      LGT RAIN  37  36  96 NE3       30.08S
MARSHALL       CLOUDY    43  34  71 CALM      30.01R
MOUNT PLEASANT CLOUDY    38  32  78 N5        30.05S WCI  35
MUSKEGON       CLOUDY    42  34  73 NE5       30.05R
SOUTH HAVEN    CLOUDY    44  42  93 CALM      30.02R
$$
MIZ016>042-291100-
NORTHERN LOWER MICHIGAN

CITY           SKY/WX    TMP DP  RH WIND       PRES   REMARKS
ALPENA         CLOUDY    38  29  70 NE3       30.10R
BEAVER ISLAND  CLOUDY    35  32  89 CALM      30.12S
BELLAIRE       CLOUDY    42  23  45 CALM      30.10S
CADILLAC       CLOUDY    38  28  67 CALM      30.05S
CHARLEVOIX     CLOUDY    41  25  51 CALM      30.14S
GAYLORD        CLOUDY    39  23  52 N3        30.08S
GRAYLING       CLOUDY    39  26  58 NE3       30.08S
HARBOR SPRINGS CLOUDY    37  28  72 CALM      30.11S
HOUGHTON LAKE  CLOUDY    39  24  55 NE7       30.06F WCI  34
MANISTEE       CLOUDY    43  28  56 CALM      30.08S
OSCODA         CLOUDY    41  33  72 NE5       30.07S
PELLSTON       CLOUDY    31  27  85 CALM      30.12R
ROGERS CITY    CLOUDY    31  29  91 CALM      30.12S
TRAVERSE CITY  CLOUDY    43  36  76 NE5       30.07S
$$
MIZ007>008-015-291100-
EASTERN UPPER MICHIGAN

CITY           SKY/WX    TMP DP  RH WIND       PRES   REMARKS
KINROSS          N/A     37  30  75 E7        30.13R WCI  32
MACKINAC ISLAN CLOUDY    37  29  74 NE8       30.12R WCI  31
NEWBERRY       CLOUDY    34  31  88 N3        30.12R
S. S. MARIE    PTCLDY    37  28  70 E5        30.13R WCI  33
MUNISING         N/A     33  30  88 CALM      30.13R
$$
MIZ004>006-011>014-085-291100-
CENTRAL UPPER MICHIGAN

CITY           SKY/WX    TMP DP  RH WIND       PRES   REMARKS
MANISTIQUE     CLOUDY    35  31  87 N3        30.11S
ESCANABA       CLOUDY    39  30  70 N5        30.12S
MENOMINEE      CLOUDY    41  28  60 NE6       30.10S
SAWYER-GWINN   CLOUDY    34  28  76 N3        30.12S
$$
MIZ001>003-009>011-084-291100-
WESTERN UPPER MICHIGAN

CITY           SKY/WX    TMP DP  RH WIND       PRES   REMARKS
IRON MOUNTAIN  CLOUDY    38  26  62 NW3       30.10R
HOUGHTON       PTCLDY    31  25  78 NW3       30.13R
COPPER HARBOR    N/A     32  28  85 SW6       30.14R WCI  26
IRONWOOD       CLOUDY    32  28  86 CALM      30.12R
$$

ABBREVIATIONS USED IN REMARKS
   TC - TEMPERATURE IN CELSIUS
  WCI - WIND CHILL INDEX
   HX - HEAT INDEX
  VSB - VISIBILITY





USA.gov is the U.S. government's official web portal to all federal, state and local government web resources and services.